North Myrtle Beach, SC

3:08 AM EST on February 11, 2016 (GMT -0500)
Grand Strand

Weather History for KCRE - August, 2013

Change the Weather History Date:

Thursday, August 15, 2013

  Actual Average Record
Temperature  
Mean Temperature 67 °F 79 °F  
Max Temperature 71 °F 86 °F 93 °F (1995)
Min Temperature 63 °F 72 °F 63 °F (1950)
Degree Days  
Heating Degree Days 0 0  
Month to date heating degree days 0 0  
Since 1 June heating degree days 0 0  
Since 1 July heating degree days 0 0  
Cooling Degree Days 2 14  
Month to date cooling degree days 217 215  
Year to date cooling degree days 1253 1260  
Since 1 June cooling degree days 1073 1048  
Growing Degree Days 16 (Base 50)    
Moisture  
Dew Point 64 °F    
Average Humidity 94    
Maximum Humidity 100    
Minimum Humidity 87    
Precipitation  
Precipitation 1.41 in 0.23 in 1.41 in (2013)
Month to date precipitation 2.84 3.13  
Year to date precipitation 39.41 31.07  
Sea Level Pressure  
Sea Level Pressure 30.07 in    
Wind  
Wind Speed 10 mph (NNE)    
Max Wind Speed 14 mph    
Max Gust Speed 23 mph    
Visibility 6 miles    
Events Rain    
T = Trace of Precipitation, MM = Missing Value Source: NWS Daily Summary

Daily Weather History Graph

Daily Weather History Graph

Search for Another Location

Airport or City:

Trip Planner

Search our weather history database for the weather conditions in past years. The results will help you decide how hot, cold, wet, or windy it might be!

Date:

Astronomy

Aug. 15, 2013 Rise Set
Actual Time 6:36 AM EDT 8:01 PM EDT
Civil Twilight 6:10 AM EDT 8:27 PM EDT
Nautical Twilight 5:38 AM EDT 8:58 PM EDT
Astronomical Twilight 5:06 AM EDT 9:31 PM EDT
Moon 3:11 PM EDT (8/15) 12:48 AM EDT (8/15)
Length of Visible Light 14h 16m
Length of Day
13h 24m
Waxing Gibbous, 64% of the Moon is Illuminated
Aug 15
Waxing Gibbous
Aug 20
Full
Aug 28
Last Quarter
Sep 5
New
Sep 12
First Quarter

Hourly Weather History & Observations

Time (EDT) Temp. Dew Point Humidity Pressure Visibility Wind Dir Wind Speed Gust Speed Precip Events Conditions
12:53 AM 66.0 °F 63.0 °F 90% 30.04 in 10.0 mi NNE 10.4 mph - 0.00 in   Overcast
1:53 AM 66.0 °F 63.0 °F 90% 30.04 in 10.0 mi NE 11.5 mph - 0.00 in Rain Light Rain
2:53 AM 64.0 °F 61.0 °F 90% 30.04 in 4.0 mi NNE 13.8 mph 23.0 mph 0.14 in Rain Rain
3:28 AM 62.6 °F 60.8 °F 94% 30.04 in 2.0 mi NNE 12.7 mph - 0.25 in Rain Heavy Rain
3:51 AM 62.6 °F 60.8 °F 94% 30.04 in 4.0 mi NNE 11.5 mph - 0.40 in Rain Rain
3:53 AM 63.0 °F 61.0 °F 93% 30.04 in 4.0 mi North 8.1 mph - 0.41 in Rain Rain
4:20 AM 62.6 °F 62.6 °F 100% 30.02 in 10.0 mi NNE 16.1 mph 21.9 mph 0.01 in Rain Light Rain
4:44 AM 62.6 °F 62.6 °F 100% 30.03 in 10.0 mi NNE 10.4 mph 20.7 mph 0.01 in Rain Light Rain
4:53 AM 63.0 °F 62.1 °F 97% 30.04 in 10.0 mi NNE 12.7 mph - 0.01 in Rain Light Rain
5:53 AM 63.0 °F 62.1 °F 97% 30.06 in 9.0 mi North 9.2 mph 18.4 mph 0.01 in Rain Light Rain
6:07 AM 62.6 °F 62.6 °F 100% 30.07 in 8.0 mi NNW 6.9 mph - 0.01 in Rain Light Rain
6:32 AM 62.6 °F 60.8 °F 94% 30.07 in 10.0 mi NNE 16.1 mph 27.6 mph 0.03 in Rain Light Rain
6:53 AM 63.0 °F 62.1 °F 97% 30.06 in 10.0 mi NE 16.1 mph 23.0 mph 0.03 in   Mostly Cloudy
7:53 AM 64.0 °F 62.1 °F 93% 30.06 in 4.0 mi NE 12.7 mph - 0.02 in Rain Rain
8:38 AM 64.4 °F 62.6 °F 94% 30.07 in 5.0 mi NE 13.8 mph - 0.06 in Rain Rain
8:53 AM 64.0 °F 63.0 °F 96% 30.08 in 3.0 mi NNE 8.1 mph - 0.08 in Rain Light Rain
8:58 AM 64.4 °F 62.6 °F 94% 30.08 in 2.5 mi NNE 11.5 mph - 0.02 in Rain Rain
9:12 AM 64.4 °F 62.6 °F 94% 30.08 in 1.0 mi North 9.2 mph - 0.14 in Rain Heavy Rain
9:16 AM 64.4 °F 62.6 °F 94% 30.07 in 0.8 mi NNE 11.5 mph - 0.18 in Rain Heavy Rain
9:20 AM 64.4 °F 62.6 °F 94% 30.07 in 1.0 mi NNE 10.4 mph - 0.23 in Rain Heavy Rain
9:53 AM 64.0 °F 63.0 °F 96% 30.09 in 1.2 mi North 10.4 mph 16.1 mph 0.40 in Rain Heavy Rain
9:59 AM 64.4 °F 62.6 °F 94% 30.09 in 2.0 mi NNE 8.1 mph - 0.01 in Rain Rain
10:05 AM 64.4 °F 62.6 °F 94% 30.09 in 1.8 mi NNE 12.7 mph - 0.05 in Rain Heavy Rain
10:14 AM 64.4 °F 62.6 °F 94% 30.09 in 3.0 mi NNE 13.8 mph - 0.06 in Rain Light Rain
10:34 AM 64.4 °F 62.6 °F 94% 30.09 in 2.0 mi NNE 12.7 mph - 0.06 in Rain Light Rain
10:53 AM 64.0 °F 63.0 °F 96% 30.10 in 1.8 mi NNE 11.5 mph - 0.14 in Rain Heavy Rain
10:59 AM 64.4 °F 62.6 °F 94% 30.10 in 2.0 mi NNE 11.5 mph 17.3 mph 0.01 in Rain Rain
11:29 AM 64.4 °F 64.4 °F 100% 30.09 in 3.0 mi NNE 11.5 mph 19.6 mph 0.08 in Rain Light Rain
11:53 AM 66.0 °F 64.0 °F 93% 30.09 in 3.0 mi NNE 10.4 mph - 0.09 in Rain Light Rain
12:02 PM 66.2 °F 64.4 °F 94% 30.09 in 2.5 mi NNE 9.2 mph - 0.01 in Rain Light Rain
12:09 PM 66.2 °F 64.4 °F 94% 30.09 in 3.0 mi NNE 11.5 mph - 0.01 in Rain Light Rain
12:49 PM 66.2 °F 64.4 °F 94% 30.09 in 6.0 mi NNE 10.4 mph - 0.02 in Rain Light Rain
12:53 PM 66.9 °F 64.9 °F 93% 30.09 in 7.0 mi NNE 10.4 mph - 0.02 in Rain Light Rain
1:53 PM 69.1 °F 66.0 °F 90% 30.07 in 7.0 mi NNE 11.5 mph 18.4 mph 0.00 in   Overcast
2:50 PM 69.8 °F 66.2 °F 88% 30.05 in 5.0 mi NNE 12.7 mph - 0.00 in Rain Light Rain
2:53 PM 70.0 °F 66.9 °F 90% 30.06 in 5.0 mi NNE 9.2 mph - 0.00 in Rain Light Rain
3:17 PM 71.6 °F 66.2 °F 83% 30.05 in 8.0 mi NNE 8.1 mph - 0.00 in Rain Light Rain
3:53 PM 70.0 °F 66.9 °F 90% 30.05 in 9.0 mi NNE 10.4 mph - 0.00 in Rain Light Rain
4:53 PM 70.0 °F 66.9 °F 90% 30.05 in 5.0 mi NNE 8.1 mph - 0.02 in Rain Light Rain
5:53 PM 70.0 °F 66.9 °F 90% 30.05 in 5.0 mi NNE 6.9 mph - 0.01 in Rain Light Rain
6:53 PM 68.0 °F 66.0 °F 93% 30.06 in 9.0 mi NNE 8.1 mph - 0.01 in Rain Light Rain
7:53 PM 68.0 °F 66.0 °F 93% 30.06 in 10.0 mi NE 8.1 mph - 0.01 in   Overcast
8:53 PM 68.0 °F 64.9 °F 90% 30.08 in 10.0 mi NNE 5.8 mph - 0.00 in   Overcast
9:53 PM 66.9 °F 64.9 °F 93% 30.10 in 10.0 mi NNE 8.1 mph - 0.00 in   Overcast
10:53 PM 66.0 °F 64.0 °F 93% 30.10 in 10.0 mi NNE 8.1 mph - 0.01 in Rain Light Rain
11:53 PM 66.0 °F 64.0 °F 93% 30.09 in 10.0 mi NNE 9.2 mph - 0.00 in   Overcast